Location: Westminster
(33.3626°N, 96.4619°W)
Time: 14:39:25
(UTC+00:00)

Cosmos 1763 Rocket - Visible Passes

Search period start: 03 July 2022 00:00
Search period end: 13 July 2022 00:00
Orbit: 732 x 780 km, 74.0° (Epoch: 02 July)

Date Brightness Start Highest point End Pass type
(mag) Time Alt. Az. Time Alt. Az. Time Alt. Az.
03 Jul 4.9 07:01:39 33° NE 07:01:39 33° NE 07:04:47 10° NNE visible
03 Jul 5.4 08:41:39 17° WNW 08:41:48 17° WNW 08:45:07 10° NNW visible
04 Jul 5.6 06:21:41 18° ENE 06:21:41 18° ENE 06:23:28 10° NE visible
04 Jul 4.9 08:01:41 29° NW 08:01:41 29° NW 08:05:31 10° N visible
05 Jul 4.6 07:21:42 41° NNW 07:21:42 41° NNW 07:25:18 10° N visible
06 Jul 4.9 06:41:41 34° NNE 06:41:41 34° NNE 06:44:41 10° NNE visible
06 Jul 5.8 08:21:40 12° WNW 08:21:46 12° WNW 08:23:54 10° NW visible
07 Jul 5.5 06:01:38 21° NE 06:01:38 21° NE 06:03:39 10° NE visible
07 Jul 5.3 07:41:38 22° NW 07:41:38 22° NW 07:44:56 10° NNW visible
08 Jul 6.0 05:21:34 11° ENE 05:21:34 11° ENE 05:21:52 10° ENE visible
08 Jul 4.9 07:01:33 34° NNW 07:01:33 34° NNW 07:04:57 10° N visible
09 Jul 4.9 06:21:27 36° NNE 06:21:27 36° NNE 06:24:31 10° NNE visible
10 Jul 5.2 05:41:20 25° NE 05:41:20 25° NE 05:43:40 10° NNE visible
10 Jul 5.7 07:21:19 17° NW 07:21:19 17° NW 07:24:10 10° NNW visible
11 Jul 5.7 05:01:10 15° NE 05:01:10 15° NE 05:02:19 10° NE visible
11 Jul 5.2 06:41:09 28° NW 06:41:09 28° NW 06:44:30 10° N visible
12 Jul 4.8 06:00:58 37° N 06:00:58 37° N 06:04:15 10° N visible
